Flag for Papua New Guinea Weather past 2 weeks in Port Moresby, Papua New Guinea

Now
82 °F

Passing clouds.


Feels Like: 89 °F
Forecast: 77 / 89 °F
Wind: No wind

Location: Moresby


UV Index: 7 (High)

Visibility: N/A


Pressure: 29.77 "Hg

Humidity: 79%

Dew point: 75 °F

Location of Port MoresbyLocation

Historic Weather in Port Moresby

°F

Port Moresby temperature yesterday

Maximum temperature yesterday: 84 °F (at 1:00 PM)
Minimum temperature yesterday: 75 °F (at 3:00 AM)
Average temperature yesterday: 80 °F

Past Weeks' High & Low Weather Summary

 TemperatureHumidityPressure
High90 °F (Apr 14, 2:00 PM)100% (Apr 10, 12:00 AM)29.89 "Hg (Apr 10, 12:00 AM)
Low64 °F (Apr 15, 12:00 PM)59% (Apr 14, 2:00 PM)29.65 "Hg (Apr 9, 2:00 PM)
Average80 °F87%29.75 "Hg
* Reported Apr 8 9:00 PM — Apr 23 9:00 PM, Port Moresby, Weather by CustomWeather, © 2014

Note: Actual official high and low records may vary slightly from our data, if they occured in-between our weather recording intervals... More about our weather records

Advertising

Historic Weather Conditions — Data for Previous 24 hours

 ConditionsComfort  
Time TempWeatherWind HumidityBarometerVisibility
9:00 PM
Apr 23
82 °FPassing clouds.No wind79%29.77 "HgN/A
8:00 PM82 °FWarm.No wind84%29.77 "HgN/A
7:00 PM82 °FPassing clouds.6 mph84%29.74 "HgN/A
6:00 PM82 °FBroken clouds.6 mph84%29.74 "HgN/A
5:00 PM88 °FScattered clouds.6 mph70%29.71 "HgN/A
4:00 PM88 °FScattered clouds.8 mph70%29.68 "HgN/A
3:00 PM88 °FScattered clouds.9 mph66%29.68 "HgN/A
2:00 PM88 °FScattered clouds.7 mph70%29.71 "HgN/A
1:00 PM88 °FScattered clouds.7 mph70%29.71 "HgN/A
12:00 PM88 °FPartly sunny.7 mph75%29.74 "HgN/A
11:00 AM88 °FPassing clouds.6 mph66%29.77 "HgN/A
10:01 AM84 °FPassing clouds.6 mph74%29.77 "HgN/A
9:00 AM82 °FPassing clouds.3 mph79%29.80 "HgN/A
8:00 AM81 °FPassing clouds.2 mph89%29.77 "HgN/A
7:00 AM75 °FScattered clouds.No wind94%29.77 "HgN/A
6:00 AM75 °FMild.No wind100%29.74 "HgN/A
5:00 AM77 °FPassing clouds.No wind94%29.74 "HgN/A
3:00 AM77 °FPassing clouds.No wind94%29.74 "HgN/A
2:00 AM77 °FPassing clouds.No wind94%29.74 "HgN/A
1:00 AM77 °FPassing clouds.No wind94%29.77 "HgN/A
12:00 AM79 °FPassing clouds.No wind89%29.77 "HgN/A
11:00 PM
Apr 22
79 °FPassing clouds.2 mph94%29.80 "HgN/A
10:00 PM81 °FMostly cloudy.No wind89%29.80 "HgN/A
Weather by CustomWeather, © 2014

See weather overview